[[{"header":{"parameterUnit":"m.s-1","parameterCategory":1,"la1":30.2991,"la2":30.254,"lo1":-89.0895,"lo2":-89.0444,"dy":0.0017,"dx":0.0017,"nx":28,"ny":28,"refTime":"2025-04-13T21:00:00:Z","depth":0,"parameterNumber":2,"parameterNumberName":"U-component_of_WINDS"},"data":[0,0,0,0,0,0,0,0,0,0,0,0,0,0,0,0,0,0,0,0,0,0,0,0,0,0,0,0,0,0,0,0,0,0,0,0,0,0,0,0,0,0,0,0,0,0,0,0,0,0,0,0,0,0,0,0,0,0,-1.4892,-1.4892,0,-1.4948,-1.4948,-1.4949,-1.5002,-1.5003,-1.5004,-1.5004,-1.5062,-1.5063,-1.5064,0,0,0,0,0,0,0,0,0,0,0,0,0,-1.4832,-1.4833,-1.4892,-1.4892,-1.4893,-1.4948,-1.4948,-1.4949,-1.5002,-1.5003,-1.5004,-1.5004,-1.5062,-1.5063,-1.5064,0,0,0,0,0,0,0,0,0,0,0,0,0,-1.487,-1.4833,-1.4892,-1.4926,-1.493,-1.4948,-1.4949,-1.4949,-1.5002,-1.5003,-1.5004,-1.5005,-1.5061,-1.5063,-1.5064,-1.5052,0,0,-1.5068,-1.5069,0,0,0,0,0,0,0,0,-1.4868,-1.4872,-1.492,-1.4924,-1.4928,-1.4969,-1.4949,-1.4984,-1.5002,-1.4974,-1.5004,-1.5005,-1.503,-1.5034,-1.5043,-1.5055,-1.5058,-1.5068,-1.5069,-1.507,-1.507,0,0,0,0,0,0,0,-1.4865,-1.487,-1.4914,-1.4921,-1.4926,-1.4939,-1.4946,-1.4956,-1.4996,-1.4977,-1.4981,-1.4987,-1.5033,-1.5041,-1.5044,-1.5058,-1.5068,-1.5069,-1.507,-1.5071,-1.5066,-1.5065,0,0,0,0,0,0,-1.4857,-1.4868,-1.4912,-1.4916,-1.49,-1.494,-1.4947,-1.4955,-1.4996,-1.5003,-1.4986,-1.4989,-1.5038,-1.5043,-1.5047,-1.5036,-1.507,-1.5071,-1.5072,-1.5067,-1.5066,-1.5065,0,0,0,0,0,0,-1.4856,-1.4861,-1.491,-1.4893,-1.49,-1.494,-1.4948,-1.4955,-1.4964,-1.5003,-1.501,-1.4987,-1.5039,-1.5045,-1.5051,-1.5039,-1.5072,-1.5073,-1.5068,-1.5067,-1.5065,-1.5015,0,0,0,0,0,0,-1.4854,-1.486,-1.4855,-1.4892,-1.4901,-1.4912,-1.4947,-1.4956,-1.4966,-1.4971,-1.5006,-1.5013,-1.504,-1.5049,-1.5052,-1.5041,-1.5074,-1.5069,-1.5068,-1.5066,-1.5017,-1.5012,-1.5007,0,0,0,0,0,-1.4851,-1.4838,-1.4855,-1.486,-1.4896,-1.4911,-1.4916,-1.4948,-1.4965,-1.4961,-1.4986,-1.5012,-1.504,-1.5049,-1.5053,-1.5043,-1.507,-1.5068,-1.5066,-1.502,-1.5013,-1.5007,0,0,0,0,0,0,-1.4798,-1.4844,-1.4862,-1.4861,-1.4882,-1.492,-1.4916,-1.494,-1.4956,-1.496,-1.5,-1.5007,-1.5009,-1.5027,-1.5036,-1.5035,-1.5059,-1.5057,-1.5022,-1.5016,-1.501,-1.5005,-1.5075,0,0,0,0,0,-1.4787,-1.4795,-1.4835,-1.483,-1.4839,-1.4876,-1.4884,-1.4907,-1.4931,-1.494,-1.4966,-1.4988,-1.5002,-1.501,-1.5025,-1.5021,-1.503,-1.5016,-1.5011,-1.5006,-1.5004,-1.5004,-1.4999,-1.5058,-1.5058,-1.5058,0,0,-1.4762,-1.4788,-1.4791,-1.482,-1.4839,-1.4847,-1.4883,-1.489,-1.4897,-1.4941,-1.4948,-1.4968,-1.4996,-1.4997,-1.4999,-1.5012,-1.499,-1.5004,-1.5,-1.5,-1.5001,-1.4996,-1.4991,-1.5056,-1.5057,-1.5057,0,0,-1.4721,-1.4742,-1.474,-1.4759,-1.4787,-1.4812,-1.4812,-1.4848,-1.4862,-1.4871,-1.4904,-1.4914,-1.4937,-1.4955,-1.4968,-1.4937,-1.4961,-1.4941,-1.4912,-1.4911,-1.4907,-1.4903,-1.4891,-1.4887,-1.4939,-1.4939,-1.4939,0,-1.4686,-1.47,-1.4736,-1.4741,-1.4753,-1.4795,-1.4793,-1.481,-1.4842,-1.485,-1.4865,-1.4896,-1.4917,-1.4924,-1.4916,-1.4925,-1.4926,-1.4936,-1.4904,-1.4901,-1.4898,-1.4887,-1.4883,-1.4936,-1.4937,-1.4937,-1.4937,0,-1.4657,-1.4666,-1.4661,-1.4691,-1.4703,-1.4705,-1.4742,-1.475,-1.4773,-1.4796,-1.4805,-1.4833,-1.4855,-1.4859,-1.4881,-1.4869,-1.4876,-1.4897,-1.4922,-1.4889,-1.488,-1.4876,-1.4932,-1.4933,-1.4934,-1.4935,0,0,-1.4581,-1.4633,-1.463,-1.4645,-1.4681,-1.4689,-1.4694,-1.4716,-1.4722,-1.4744,-1.4749,-1.4769,-1.4789,-1.4803,-1.4828,-1.4828,-1.4802,-1.485,-1.4851,-1.4839,-1.4791,-1.4774,-1.4768,-1.4819,-1.4819,-1.4818,-1.4788,0,-1.4545,-1.4555,-1.4589,-1.4589,-1.4599,-1.4639,-1.4644,-1.4667,-1.469,-1.4702,-1.4728,-1.4741,-1.4767,-1.4776,-1.4778,-1.4805,-1.4793,-1.4808,-1.4825,-1.4825,-1.4814,-1.4764,-1.4745,-1.4715,-1.4785,-1.4785,-1.4784,0,-1.4504,-1.4523,-1.4525,-1.4562,-1.4567,-1.457,-1.4593,-1.4604,-1.4632,-1.4649,-1.4666,-1.4694,-1.4703,-1.4728,-1.474,-1.475,-1.4759,-1.4774,-1.4774,-1.4775,-1.4801,-1.4762,-1.4706,-1.4701,-1.4779,-1.4779,-1.478,0,-1.4448,-1.4475,-1.4479,-1.4491,-1.4534,-1.4535,-1.4554,-1.4583,-1.4594,-1.4615,-1.4623,-1.4645,-1.4656,-1.4673,-1.4707,-1.4722,-1.4716,-1.4743,-1.473,-1.4729,-1.4725,-1.4724,-1.4668,-1.4734,-1.4734,-1.4734,-1.4734,0,-1.4404,-1.4402,-1.4454,-1.4457,-1.4457,-1.4497,-1.4497,-1.4519,-1.4545,-1.4553,-1.4591,-1.4598,-1.4643,-1.4656,-1.4683,-1.469,-1.4695,-1.4709,-1.4716,-1.4705,-1.4703,-1.471,-1.4712,-1.4733,-1.4733,-1.4733,-1.4733,0,-1.434,-1.4374,-1.4382,-1.4423,-1.4433,-1.4432,-1.4468,-1.4472,-1.4499,-1.4509,-1.4513,-1.4555,-1.4572,-1.4608,-1.4635,-1.4654,-1.4654,-1.4667,-1.4644,-1.4648,-1.4632,-1.4633,-1.4577,-1.4572,-1.4642,-1.4641,-1.464,0,-1.4308,-1.4308,-1.435,-1.4358,-1.4375,-1.4387,-1.44,-1.444,-1.4451,-1.4484,-1.4484,-1.4505,-1.4523,-1.4548,-1.4581,-1.4603,-1.4616,-1.4596,-1.4619,-1.4608,-1.4615,-1.4614,-1.4614,-1.4589,-1.4588,-1.4587,-1.4587,0,-1.4248,-1.4266,-1.4281,-1.4303,-1.4317,-1.4336,-1.4358,-1.4363,-1.4408,-1.4419,-1.4437,-1.4451,-1.4479,-1.4499,-1.4526,-1.4546,-1.4574,-1.458,-1.4577,-1.4565,-1.4551,-1.4558,-1.4627,-1.458,-1.4581,-1.4581,-1.4581,-1.4582,-1.4199,-1.4201,-1.4231,-1.4248,-1.4268,-1.4288,-1.4294,-1.4322,-1.4338,-1.4363,-1.4387,-1.4403,-1.4433,-1.4472,-1.449,-1.4504,-1.4518,-1.4515,-1.4514,-1.4512,-1.4507,-1.455,-1.4509,-1.451,-1.451,-1.451,-1.451,0,-1.414,-1.4162,-1.4177,-1.4206,-1.4219,-1.4246,-1.4271,-1.4281,-1.4294,-1.432,-1.4337,-1.4359,-1.4379,-1.4414,-1.4438,-1.4442,-1.4455,-1.4446,-1.4446,-1.445,-1.4494,-1.4493,-1.4435,-1.4435,-1.4435,-1.4435,-1.4435,-1.4435,-1.4111,-1.4116,-1.4138,-1.4154,-1.4177,-1.4192,-1.4205,-1.4224,-1.4244,-1.4266,-1.4283,-1.4306,-1.4336,-1.4363,-1.4383,-1.4393,-1.4399,-1.4386,-1.44,-1.444,-1.4447,-1.4453,-1.4452,-1.4387,-1.4387,-1.4354,-1.4354,-1.4354]},{"header":{"parameterUnit":"m.s-1","parameterCategory":1,"la1":30.2991,"la2":30.254,"lo1":-89.0895,"lo2":-89.0444,"dy":0.0017,"dx":0.0017,"nx":28,"ny":28,"refTime":"2025-04-13T21:00:00:Z","depth":0,"parameterNumber":3,"parameterNumberName":"V-component_of_WINDS"},"data":[0,0,0,0,0,0,0,0,0,0,0,0,0,0,0,0,0,0,0,0,0,0,0,0,0,0,0,0,0,0,0,0,0,0,0,0,0,0,0,0,0,0,0,0,0,0,0,0,0,0,0,0,0,0,0,0,0,0,3.8251,3.8251,0,3.8275,3.8275,3.8275,3.8316,3.8317,3.8318,3.8319,3.8341,3.834,3.834,0,0,0,0,0,0,0,0,0,0,0,0,0,3.824,3.824,3.8251,3.8251,3.8252,3.8275,3.8275,3.8275,3.8316,3.8317,3.8318,3.8319,3.8341,3.834,3.834,0,0,0,0,0,0,0,0,0,0,0,0,0,3.8252,3.824,3.8251,3.8275,3.8277,3.8275,3.8275,3.8275,3.8316,3.8317,3.8318,3.8319,3.8341,3.834,3.834,3.8316,0,0,3.834,3.834,0,0,0,0,0,0,0,0,3.8251,3.8252,3.8271,3.8273,3.8276,3.8294,3.8279,3.8289,3.8316,3.8301,3.8319,3.832,3.8324,3.8325,3.8327,3.8317,3.8317,3.834,3.8339,3.8339,3.8339,0,0,0,0,0,0,0,3.825,3.8251,3.826,3.8271,3.8274,3.8284,3.8287,3.8281,3.8306,3.8303,3.8306,3.8308,3.8325,3.8327,3.8328,3.8318,3.834,3.8339,3.8339,3.8339,3.8288,3.8287,0,0,0,0,0,0,3.8246,3.825,3.826,3.8261,3.8266,3.8283,3.8286,3.8287,3.8306,3.831,3.8307,3.831,3.8327,3.8328,3.8329,3.83,3.8339,3.8339,3.8339,3.8289,3.8288,3.8286,0,0,0,0,0,0,3.8246,3.8247,3.8259,3.8257,3.8259,3.8282,3.8282,3.8287,3.8288,3.8309,3.8314,3.8304,3.8328,3.8329,3.8319,3.8302,3.8339,3.8339,3.829,3.8289,3.8287,3.8244,0,0,0,0,0,0,3.8245,3.8246,3.8237,3.8256,3.8259,3.8248,3.8281,3.8286,3.8288,3.8292,3.8308,3.8311,3.8329,3.8319,3.8318,3.8302,3.8339,3.8292,3.829,3.8287,3.8247,3.8241,3.8235,0,0,0,0,0,3.8245,3.8224,3.8237,3.8238,3.8248,3.8247,3.8249,3.827,3.8287,3.8278,3.8291,3.8311,3.8304,3.8317,3.8317,3.8301,3.8293,3.829,3.8288,3.8249,3.8242,3.8236,0,0,0,0,0,0,3.8202,3.8227,3.8241,3.8226,3.8234,3.8254,3.8244,3.8261,3.8265,3.8268,3.8294,3.8297,3.8283,3.8291,3.8305,3.8277,3.8302,3.8299,3.8272,3.8266,3.826,3.8258,3.8339,0,0,0,0,0,3.8191,3.8188,3.821,3.8195,3.8198,3.822,3.822,3.8236,3.8245,3.8249,3.8262,3.8269,3.8269,3.8268,3.8269,3.8249,3.8252,3.8237,3.8232,3.8227,3.8224,3.8213,3.8206,3.8277,3.8277,3.8277,0,0,3.8167,3.8181,3.8178,3.8186,3.8195,3.8191,3.8223,3.8218,3.8215,3.8248,3.8239,3.8248,3.8259,3.8243,3.8237,3.8249,3.8205,3.8223,3.8219,3.8219,3.8209,3.8203,3.8197,3.8275,3.8275,3.8276,0,0,3.8123,3.8133,3.8121,3.8129,3.8142,3.8156,3.8153,3.8171,3.8179,3.817,3.8195,3.8192,3.8191,3.8197,3.82,3.8158,3.8176,3.8158,3.8127,3.8117,3.8111,3.8106,3.809,3.8084,3.8154,3.8154,3.8154,0,3.8092,3.8088,3.8113,3.8106,3.8109,3.814,3.8127,3.8133,3.8145,3.8146,3.816,3.8159,3.8168,3.8154,3.8144,3.8146,3.8143,3.8155,3.811,3.8105,3.8101,3.8086,3.808,3.8152,3.8152,3.8152,3.8153,0,3.8049,3.8046,3.8035,3.8046,3.8048,3.8038,3.8061,3.8059,3.8075,3.8088,3.8078,3.8091,3.8094,3.8092,3.8107,3.808,3.8088,3.8106,3.813,3.8092,3.8078,3.8073,3.8149,3.8149,3.815,3.8151,0,0,3.7977,3.8003,3.7998,3.8004,3.802,3.8017,3.8009,3.8013,3.8011,3.8018,3.8011,3.801,3.8027,3.803,3.8046,3.8037,3.8002,3.8056,3.8057,3.8045,3.7972,3.7957,3.795,3.8015,3.8014,3.8013,3.7971,0,3.7936,3.7923,3.7945,3.7927,3.7925,3.7954,3.7947,3.7955,3.7967,3.7966,3.7979,3.7978,3.8,3.8002,3.7995,3.8008,3.7987,3.8011,3.8007,3.8007,3.8003,3.7944,3.7928,3.7888,3.7966,3.7965,3.7964,0,3.7885,3.789,3.7872,3.789,3.7889,3.7882,3.7888,3.7887,3.7897,3.7906,3.791,3.7929,3.7922,3.7946,3.7935,3.7951,3.7951,3.7957,3.7956,3.7955,3.7982,3.794,3.7876,3.7869,3.7956,3.7957,3.7957,0,3.7833,3.7836,3.7826,3.7829,3.7849,3.7844,3.7852,3.7863,3.7864,3.7869,3.787,3.7873,3.7875,3.7877,3.7896,3.7912,3.7882,3.7909,3.7889,3.7888,3.7881,3.7881,3.7814,3.7882,3.7882,3.7882,3.7882,0,3.7784,3.7771,3.7803,3.7796,3.7783,3.7808,3.7794,3.7805,3.7815,3.781,3.7836,3.7831,3.7858,3.7855,3.787,3.7859,3.7859,3.7866,3.787,3.7863,3.7862,3.7862,3.7865,3.7881,3.7881,3.7881,3.7882,0,3.7723,3.7744,3.7734,3.7754,3.7759,3.7748,3.7765,3.7759,3.7773,3.7767,3.7767,3.7789,3.7788,3.7808,3.781,3.782,3.7801,3.781,3.7797,3.78,3.7779,3.778,3.7709,3.77,3.7775,3.7774,3.7774,0,3.769,3.7681,3.77,3.7699,3.7706,3.7705,3.7706,3.773,3.7731,3.7742,3.7734,3.7735,3.7737,3.7734,3.7749,3.7751,3.776,3.7735,3.776,3.7753,3.7758,3.7758,3.7757,3.7729,3.7728,3.7727,3.7727,0,3.7628,3.7638,3.764,3.7645,3.7646,3.7651,3.7657,3.7655,3.7681,3.768,3.7679,3.7681,3.7684,3.7684,3.7689,3.7696,3.7715,3.7719,3.7714,3.7706,3.7699,3.7702,3.7782,3.772,3.7721,3.7721,3.7722,3.7722,3.7579,3.7572,3.7585,3.7586,3.7593,3.7599,3.7594,3.7608,3.7608,3.7613,3.7627,3.7624,3.7634,3.7642,3.7648,3.7645,3.7657,3.7651,3.7649,3.7647,3.7642,3.77,3.7646,3.7647,3.7647,3.7647,3.7647,0,3.7518,3.7527,3.7528,3.7536,3.7537,3.7556,3.7564,3.7563,3.756,3.7568,3.757,3.7568,3.7569,3.7584,3.7586,3.7581,3.759,3.7581,3.7581,3.7582,3.7632,3.7635,3.7573,3.7574,3.7574,3.7574,3.7574,3.7574,3.7486,3.7475,3.7488,3.7481,3.7491,3.7488,3.7491,3.7496,3.7503,3.7501,3.7501,3.7512,3.7523,3.7526,3.7527,3.7531,3.753,3.7518,3.7525,3.7571,3.7579,3.7585,3.7589,3.7518,3.7518,3.7476,3.7475,3.7475]}]]